TimeEST,TemperatureF,Dew PointF,Humidity,Sea Level PressureIn,VisibilityMPH,Wind Direction,Wind SpeedMPH,Gust SpeedMPH,PrecipitationIn,Events,Conditions,WindDirDegrees,DateUTC
12:53 AM,64.9,63.0,93,30.08,10.0,Calm,Calm,-,N/A,,Mostly Cloudy,0,2013-01-16 05:53:00
1:53 AM,64.0,62.1,93,30.08,10.0,Calm,Calm,-,N/A,,Scattered Clouds,0,2013-01-16 06:53:00
2:53 AM,64.0,63.0,96,30.08,10.0,Calm,Calm,-,N/A,,Partly Cloudy,0,2013-01-16 07:53:00
3:53 AM,60.1,60.1,100,30.07,7.0,Calm,Calm,-,N/A,Fog,Patches of Fog,0,2013-01-16 08:53:00
4:53 AM,60.1,60.1,100,30.06,9.0,Calm,Calm,-,N/A,Fog,Patches of Fog,0,2013-01-16 09:53:00
5:53 AM,60.1,59.0,96,30.07,8.0,Calm,Calm,-,N/A,Fog,Patches of Fog,0,2013-01-16 10:53:00
6:36 AM,57.2,57.2,100,30.08,7.0,Calm,Calm,-,N/A,Fog,Patches of Fog,0,2013-01-16 11:36:00
6:53 AM,57.0,57.0,100,30.08,7.0,Calm,Calm,-,N/A,Fog,Patches of Fog,0,2013-01-16 11:53:00
7:53 AM,60.1,60.1,100,30.11,10.0,Calm,Calm,-,N/A,Fog,Patches of Fog,0,2013-01-16 12:53:00
8:53 AM,66.9,66.0,97,30.11,10.0,South,4.6,-,N/A,,Scattered Clouds,180,2013-01-16 13:53:00
9:53 AM,73.9,64.9,73,30.12,10.0,SSW,6.9,-,N/A,,Scattered Clouds,200,2013-01-16 14:53:00
10:53 AM,77.0,61.0,58,30.11,10.0,SSW,6.9,-,N/A,,Mostly Cloudy,210,2013-01-16 15:53:00
11:53 AM,80.1,59.0,48,30.08,10.0,WSW,8.1,-,N/A,,Mostly Cloudy,250,2013-01-16 16:53:00
12:53 PM,82.0,57.0,42,30.06,10.0,Variable,4.6,-,N/A,,Scattered Clouds,0,2013-01-16 17:53:00
1:53 PM,80.1,57.9,47,30.04,10.0,SSW,8.1,-,N/A,,Mostly Cloudy,210,2013-01-16 18:53:00
2:53 PM,82.0,57.9,44,30.03,10.0,Variable,3.5,-,N/A,,Mostly Cloudy,0,2013-01-16 19:53:00
3:53 PM,81.0,57.0,44,30.03,10.0,SW,5.8,-,N/A,,Scattered Clouds,220,2013-01-16 20:53:00
4:53 PM,80.1,57.0,45,30.03,10.0,SSE,10.4,-,N/A,,Scattered Clouds,160,2013-01-16 21:53:00
5:53 PM,75.9,57.0,52,30.04,10.0,SSE,4.6,-,N/A,,Scattered Clouds,150,2013-01-16 22:53:00
6:53 PM,70.0,57.0,63,30.04,10.0,SE,3.5,-,N/A,,Partly Cloudy,130,2013-01-16 23:53:00
7:53 PM,66.9,57.9,73,30.06,10.0,East,5.8,-,N/A,,Clear,100,2013-01-17 00:53:00
8:53 PM,69.1,64.0,84,30.06,10.0,ESE,6.9,-,N/A,,Clear,120,2013-01-17 01:53:00
9:53 PM,68.0,64.9,90,30.06,10.0,SE,5.8,-,N/A,,Clear,140,2013-01-17 02:53:00
10:53 PM,64.9,63.0,93,30.05,10.0,Calm,Calm,-,N/A,,Clear,0,2013-01-17 03:53:00
11:53 PM,64.0,63.0,96,30.04,10.0,SSE,3.5,-,N/A,,Clear,160,2013-01-17 04:53:00